GAOFEN-11 01

Last updated on Fri Dec 19 2025 00:02:34 GMT+0000 (Coordinated Universal Time)

1 43585U 18063A 25352.63125494 .00016122 00000+0 29529-3 0 9995 2 43585 97.1561 55.5169 0004059 284.7898 75.2903 15.49389651412331
UTC large
Height (km)
Speed (km/s)
/
Latitude / Longitude
Inclination (degrees)
Orbital Period (minutes)
Azimuth
Elevation
Range (km)
Doppler Factor

Next 0 passes for location: London (51.5072 / 0.1276)

Sorry there are no passes over London.